Weather History for Avoca, PA

Change the Weather History Date:

Saturday, November 24, 2012

  Actual Average Record
Temperature  
Mean Temperature 37 °F 38 °F  
Max Temperature 42 °F 46 °F 69 °F (1931)
Min Temperature 32 °F 31 °F 9 °F (2000)
Degree Days  
Heating Degree Days 28 27  
Month to date heating degree days 580 542  
Since 1 July heating degree days 1038 1145  
Cooling Degree Days 0 0  
Month to date cooling degree days 0 0  
Year to date cooling degree days 864 580  
Moisture  
Dew Point 19 °F    
Average Humidity 54    
Maximum Humidity 64    
Minimum Humidity 44    
Precipitation  
Precipitation T in 0.10 in 1.90 in (1912)
Month to date precipitation 0.84 2.50  
Year to date precipitation 33.92 34.94  
Sea Level Pressure  
Sea Level Pressure 29.80 in    
Wind  
Wind Speed 13 mph (WNW)    
Max Wind Speed 23 mph    
Max Gust Speed 32 mph    
Visibility 10 miles    
Events Snow    
T = Trace of Precipitation, MM = Missing Value Source: NWS Daily Summary

Daily Weather History Graph

Daily Weather History Graph

Search for Another Location

Airport:

Trip Planner

Search our weather history database for the weather conditions in past years. The results will help you decide how hot, cold, wet, or windy it might be!

Date:

Astronomy

Nov. 24, 2012 Rise Set
Actual Time 7:02 AM EST 4:36 PM EST
Civil Twilight 6:31 AM EST 5:07 PM EST
Nautical Twilight 5:57 AM EST 5:41 PM EST
Astronomical Twilight 5:24 AM EST 6:14 PM EST
Moon 2:22 PM EST (11/24) 3:15 AM EST (11/24)
Length of Visible Light 10h 35m
Length of Day
9h 34m
Waxing Gibbous, 87% of the Moon is Illuminated
Nov 24
Waxing Gibbous
Nov 28
Full
Dec 6
Last Quarter
Dec 13
New
Dec 20
First Quarter

Hourly Weather History & Observations

Time (EST) Temp. Windchill Dew Point Humidity Pressure Visibility Wind Dir Wind Speed Gust Speed Precip Events Conditions
12:54 AM 41.0 °F 33.9 °F 21.9 °F 47% 29.73 in 10.0 mi WNW 12.7 mph 24.2 mph N/A   Overcast
1:54 AM 39.0 °F 32.3 °F 23.0 °F 53% 29.74 in 10.0 mi West 10.4 mph 24.2 mph N/A   Overcast
2:54 AM 37.0 °F 29.8 °F 21.0 °F 52% 29.75 in 10.0 mi WNW 10.4 mph 18.4 mph N/A   Mostly Cloudy
3:54 AM 36.0 °F 26.7 °F 19.9 °F 52% 29.75 in 10.0 mi West 15.0 mph - N/A   Overcast
4:54 AM 36.0 °F 29.6 °F 19.0 °F 50% 29.75 in 10.0 mi West 8.1 mph - N/A   Overcast
5:54 AM 35.1 °F 27.4 °F 21.0 °F 57% 29.77 in 10.0 mi West 10.4 mph - N/A   Overcast
6:54 AM 34.0 °F 25.0 °F 21.0 °F 59% 29.78 in 10.0 mi West 12.7 mph - N/A   Overcast
7:54 AM 33.1 °F 25.5 °F 23.0 °F 66% 29.79 in 10.0 mi West 9.2 mph - N/A   Mostly Cloudy
8:54 AM 36.0 °F 28.0 °F 21.9 °F 57% 29.79 in 10.0 mi West 11.5 mph - N/A   Mostly Cloudy
9:54 AM 37.0 °F 28.9 °F 19.0 °F 48% 29.79 in 10.0 mi WNW 12.7 mph 24.2 mph N/A   Overcast
10:54 AM 37.0 °F 27.7 °F 18.0 °F 46% 29.78 in 10.0 mi WNW 16.1 mph 28.8 mph N/A   Overcast
11:54 AM 34.0 °F 25.0 °F 25.0 °F 70% 29.78 in 9.0 mi NNW 12.7 mph - 0.00 in Snow Light Snow
12:54 PM 35.1 °F 24.8 °F 24.1 °F 64% 29.77 in 10.0 mi West 17.3 mph 27.6 mph 0.00 in   Overcast
1:54 PM 37.0 °F 28.1 °F 18.0 °F 46% 29.76 in 10.0 mi West 15.0 mph 28.8 mph N/A   Overcast
2:54 PM 36.0 °F 26.0 °F 18.0 °F 48% 29.77 in 10.0 mi NW 17.3 mph 23.0 mph 0.00 in   Overcast
3:54 PM 35.1 °F 25.2 °F 17.1 °F 48% 29.80 in 10.0 mi WNW 16.1 mph 28.8 mph N/A   Overcast
4:54 PM 34.0 °F 24.2 °F 16.0 °F 48% 29.82 in 10.0 mi NNW 15.0 mph 19.6 mph N/A   Overcast
5:54 PM 34.0 °F 26.6 °F 16.0 °F 48% 29.83 in 10.0 mi WNW 9.2 mph - N/A   Mostly Cloudy
6:54 PM 33.1 °F 23.9 °F 17.1 °F 52% 29.85 in 10.0 mi WNW 12.7 mph 23.0 mph N/A   Mostly Cloudy
7:54 PM 33.1 °F 25.5 °F 17.1 °F 52% 29.85 in 10.0 mi WNW 9.2 mph 18.4 mph N/A   Overcast
8:54 PM 33.1 °F 25.5 °F 19.0 °F 56% 29.86 in 10.0 mi West 9.2 mph 21.9 mph N/A   Overcast
9:54 PM 33.1 °F 23.4 °F 18.0 °F 54% 29.87 in 10.0 mi WNW 13.8 mph - N/A   Overcast
10:54 PM 33.1 °F 22.6 °F 15.1 °F 48% 29.88 in 10.0 mi WNW 16.1 mph 25.3 mph N/A   Overcast
11:54 PM 32.0 °F 23.6 °F 19.0 °F 59% 29.89 in 10.0 mi West 10.4 mph 20.7 mph N/A   Overcast